Overview Statistics Trail Chart Weather Telemetry Raw packets
 

This is the latest recevied weather packets stored in our database for station/object JE6MIQ-13. If no packets are shown the sender has not sent any weather packets the latest 10 day(s).

<< 1 2 3 4 5 6 7 >>
Time Temp. Humidity Pressure Rain* Wind** Luminosity Snow
1788550853 23.89° C 47% 1006 hPa 0 mm - - -
1788549951 23.89° C 48% 1005.7 hPa 0 mm - - -
1788549051 23.89° C 47% 1005.8 hPa 0 mm - - -
1788548152 23.89° C 46% 1005.9 hPa 0 mm - - -
1788547252 23.89° C 43% 1006.2 hPa 0 mm - - -
1788546352 23.89° C 45% 1006.2 hPa 0 mm - - -
1788545452 23.89° C 42% 1006.3 hPa 0 mm - - -
1788544552 23.89° C 42% 1006.1 hPa 0 mm - - -
1788543651 23.89° C 41% 1006 hPa 0 mm - - -
1788542752 24.44° C 42% 1006 hPa 0 mm - - -
1788541853 24.44° C 41% 1006 hPa 0 mm - - -
1788540952 23.89° C 41% 1006.3 hPa 0 mm - - -
1788540052 23.89° C 40% 1006 hPa 0 mm - - -
1788539151 23.89° C 41% 1006.2 hPa 0 mm - - -
1788538253 23.89° C 41% 1006.2 hPa 0 mm - - -
1788537353 23.89° C 41% 1006.2 hPa 0 mm - - -
1788536452 23.89° C 42% 1006.1 hPa 0 mm - - -
1788535552 23.89° C 44% 1006.3 hPa 0 mm - - -
1788534652 23.89° C 43% 1006.2 hPa 0 mm - - -
1788533753 24.44° C 41% 1006.2 hPa 0 mm - - -
1788532852 24.44° C 40% 1006.2 hPa 0 mm - - -
1788531952 24.44° C 41% 1005.9 hPa 0 mm - - -
1788531052 24.44° C 41% 1005.8 hPa 0 mm - - -
1788530152 24.44° C 42% 1005.9 hPa 0 mm - - -
1788529252 24.44° C 44% 1005.8 hPa 0 mm - - -

* Rain latest hour (hover to see other rain measurements)
** Current wind speed in m/s (hover to see current wind gust speed)